GW5939 Weather Reports


time (UTC)temp
C
wind
direction
speed
KPH
gust
KPH
rain 1hr
cm
rain 24hr
cm
rain mn
cm
humidity
%
barometer
mb
20260504224421 28 95 8.0 16.1 0.00 0.81 0.81 78 1010.6
20260504223919 28 96 4.8 12.9 0.00 0.81 0.81 78 1010.6
20260504223414 28 99 11.3 22.5 0.00 0.81 0.81 78 1010.6
20260504222910 28 36 11.3 20.9 0.00 0.81 0.81 79 1010.6
20260504222408 28 87 6.4 24.1 0.00 0.81 0.81 79 1010.6
20260504221906 28 57 8.0 22.5 0.00 0.81 0.81 78 1010.6
20260504221402 28 45 6.4 14.5 0.00 0.81 0.81 78 1010.6
20260504220859 28 63 4.8 9.7 0.00 0.81 0.81 78 1010.6
20260504220356 28 41 8.0 17.7 0.00 0.81 0.81 78 1010.2
20260504215853 28 93 6.4 14.5 0.00 0.81 0.81 79 1010.2
20260504215349 28 112 4.8 9.7 0.00 0.81 0.81 79 1010.2
20260504214846 28 54 4.8 11.3 0.00 0.81 0.81 79 1010.6
20260504214343 28 42 8.0 17.7 0.00 0.81 0.81 79 1010.6
20260504213839 28 49 8.0 14.5 0.00 0.81 0.81 79 1010.6
20260504213335 28 106 9.7 17.7 0.00 0.81 0.81 79 1010.6
20260504212833 28 104 4.8 12.9 0.00 0.81 0.81 80 1010.6
20260504212328 28 87 9.7 16.1 0.00 0.81 0.81 80 1010.6
20260504211827 28 68 12.9 25.7 0.00 0.81 0.81 80 1010.6
20260504211328 28 59 9.7 20.9 0.00 0.81 0.81 82 1010.6
20260504210825 28 62 4.8 11.3 0.00 0.81 0.81 82 1010.2
20260504210322 28 65 12.9 32.2 0.00 0.81 0.81 82 1010.2
20260504205819 28 28 8.0 14.5 0.00 0.81 0.81 82 1010.6
20260504205317 27 64 6.4 16.1 0.00 0.81 0.81 83 1010.6
20260504204815 27 39 11.3 19.3 0.00 0.81 0.81 83 1010.2
20260504204313 27 34 8.0 30.6 0.00 0.81 0.81 84 1010.6
20260504203812 27 42 8.0 24.1 0.00 0.81 0.81 85 1010.6
20260504203309 27 82 8.0 12.9 0.00 0.81 0.81 87 1010.2
20260504202804 27 59 3.2 11.3 0.00 0.81 0.81 87 1010.2
20260504202302 27 45 4.8 12.9 0.00 0.81 0.81 87 1010.2
20260504201758 27 89 8.0 17.7 0.00 0.81 0.81 87 1010.2
20260504201255 27 50 6.4 12.9 0.00 0.81 0.81 87 1009.9
20260504200753 26 112 6.4 14.5 0.00 0.81 0.81 87 1009.9
20260504200249 26 34 6.4 14.5 0.00 0.81 0.81 87 1009.9
20260504195746 26 40 4.8 12.9 0.00 0.81 0.81 88 1009.9
20260504195241 26 41 3.2 6.4 0.00 0.81 0.81 88 1009.9
20260504194739 26 80 1.6 8.0 0.00 0.81 0.81 88 1010.2
20260504194235 26 75 4.8 11.3 0.00 0.81 0.81 88 1010.2
20260504193731 26 82 3.2 6.4 0.00 0.81 0.81 89 1010.2
20260504193229 26 93 4.8 8.0 0.00 0.81 0.81 89 1010.2
20260504192727 25 54 3.2 9.7 0.00 0.81 0.81 89 1010.2
20260504192225 25 54 3.2 6.4 0.00 0.81 0.81 90 1010.2
20260504191723 25 95 1.6 4.8 0.00 0.81 0.81 90 1010.2
20260504191220 25 155 3.2 6.4 0.00 0.81 0.81 91 1010.2
20260504190715 25 159 0.0 0.0 0.00 0.81 0.81 91 1010.2
20260504190212 24 159 0.0 0.0 0.00 0.81 0.81 91 1010.2
20260504185708 24 159 0.0 0.0 0.00 0.81 0.81 92 1010.2
20260504185205 24 159 1.6 4.8 0.00 0.81 0.81 92 1010.2
20260504184701 23 159 0.0 0.0 0.00 0.81 0.81 92 1010.2
20260504184156 23 159 0.0 0.0 0.00 0.81 0.81 92 1010.2
20260504183653 23 159 0.0 1.6 0.00 0.81 0.81 92 1010.2
20260504183150 23 159 0.0 0.0 0.00 0.81 0.81 92 1010.2
20260504182648 23 159 0.0 0.0 0.00 0.81 0.81 92 1009.9
20260504182145 23 159 0.0 0.0 0.00 0.81 0.81 92 1009.9
20260504181643 23 159 0.0 0.0 0.00 0.81 0.81 92 1010.2
20260504181140 23 159 0.0 0.0 0.00 0.81 0.81 92 1009.9
20260504180639 23 159 0.0 0.0 0.00 0.81 0.81 93 1009.9
20260504180138 23 159 0.0 0.0 0.00 0.81 0.81 93 1009.9
20260504175634 23 159 0.0 0.0 0.00 0.81 0.81 93 1009.9
20260504175131 23 159 0.0 0.0 0.00 0.81 0.81 93 1009.9
20260504174630 23 159 0.0 0.0 0.00 0.81 0.81 92 1009.9
20260504174125 23 159 0.0 0.0 0.00 0.81 0.81 92 1009.5
20260504173623 23 159 0.0 0.0 0.00 0.81 0.81 92 1009.5
20260504173120 23 159 0.0 0.0 0.00 0.81 0.81 92 1009.5
20260504172616 23 159 0.0 0.0 0.00 0.81 0.81 92 1009.5
20260504172113 23 159 0.0 0.0 0.00 0.81 0.81 92 1009.5
20260504171609 23 159 0.0 0.0 0.00 0.81 0.81 92 1009.5
20260504171107 23 159 0.0 0.0 0.00 0.81 0.81 92 1009.5
20260504170602 23 159 0.0 0.0 0.00 0.81 0.81 92 1009.9
20260504150946 23 159 1.6 3.2 0.00 0.81 0.81 92 1011.9
20260504150443 23 159 1.6 3.2 0.00 0.81 0.81 92 1011.9
20260504140910 23 159 0.0 0.0 0.00 0.74 0.74 91 1013.4
20260504140405 23 159 0.0 0.0 1.19 0.69 0.69 91 1013.7
20260504130331 25 35 0.0 0.0 0.00 0.00 0.00 92 1013.7
20260504120254 25 35 0.0 1.6 0.00 9.60 9.60 91 1013.7
20260504110218 24 61 0.0 0.0 0.00 9.53 9.53 91 1013.0
20260504100142 24 56 4.8 8.0 1.19 9.09 9.09 88 1013.4
20260504090104 25 100 8.0 19.3 0.00 8.38 8.38 89 1011.2
20260504081535 25 51 12.9 32.2 1.19 7.98 7.98 87 1011.6
20260504081030 25 82 9.7 22.5 0.00 7.92 7.92 87 1011.6
20260504080527 25 69 9.7 27.4 2.39 7.85 7.85 88 1011.6
20260504050340 25 125 1.6 4.8 0.00 3.76 3.76 89 1009.9
20260504045838 25 128 6.4 14.5 0.00 3.71 3.71 89 1009.9
20260504045338 25 110 4.8 12.9 1.19 3.66 3.66 90 1009.9
20260504044835 25 82 3.2 12.9 2.39 3.56 3.56 90 1009.9
20260504044332 25 116 4.8 8.0 1.19 3.51 3.51 90 1010.2
20260504043830 25 163 3.2 9.7 2.39 3.40 3.40 90 1009.9
20260504043326 25 40 4.8 8.0 8.41 3.02 3.02 90 1009.9
20260504042824 25 124 1.6 8.0 9.60 2.41 2.41 90 1010.2
20260504042320 25 88 4.8 9.7 9.60 2.11 2.11 89 1009.9
20260504041816 25 99 12.9 24.1 9.60 1.96 1.96 89 1009.9
20260504041312 26 71 9.7 24.1 9.60 1.47 1.47 89 1009.9
20260504040809 26 58 12.9 27.4 0.00 1.45 1.45 89 1009.9
20260504040306 26 42 14.5 27.4 0.00 1.45 1.45 89 1009.5
20260504035802 26 23 11.3 29.0 1.19 1.42 1.42 89 1009.5
20260504035259 26 32 12.9 29.0 0.00 1.42 1.42 88 1009.5
20260504034757 26 77 11.3 27.4 0.00 1.42 1.42 87 1009.5
20260504034254 26 48 16.1 25.7 0.00 1.42 1.42 87 1009.5
20260504033751 27 321 0.0 3.2 0.00 1.42 1.42 86 1009.5
20260504033249 27 321 0.0 0.0 0.00 1.42 1.42 86 1009.9
20260504032745 26 321 0.0 3.2 0.00 1.42 1.42 86 1009.9
20260504032242 26 321 3.2 6.4 0.00 1.42 1.42 86 1009.9
20260504031739 26 66 0.0 0.0 0.00 1.42 1.42 86 1009.9
20260504031237 26 66 1.6 3.2 0.00 1.42 1.42 86 1009.9
20260504030732 26 66 3.2 6.4 0.00 1.42 1.42 87 1009.9
20260504030230 26 66 1.6 4.8 0.00 1.42 1.42 88 1010.2
20260504025726 26 65 4.8 8.0 0.00 1.42 1.42 88 1010.2
20260504025223 26 45 8.0 14.5 0.00 1.42 1.42 88 1010.2
20260504024720 26 52 6.4 14.5 0.00 1.42 1.42 89 1010.2
20260504024217 26 20 3.2 14.5 0.00 1.42 1.42 89 1010.2
20260504023714 26 44 6.4 16.1 0.00 1.40 1.40 88 1010.2
20260504023209 26 30 6.4 14.5 2.39 1.35 1.35 87 1010.2
20260504022706 27 43 6.4 17.7 0.00 1.19 1.19 83 1010.6
20260504022202 27 43 6.4 17.7 0.00 1.19 1.19 83 1010.6
20260504021700 27 182 1.6 9.7 0.00 1.19 1.19 81 1010.2
20260504021156 28 152 6.4 14.5 0.00 1.19 1.19 79 1010.6
20260504020653 30 158 3.2 12.9 0.00 1.19 1.19 79 1010.6
20260504020149 30 98 3.2 8.0 0.00 1.19 1.19 80 1010.6
20260504015646 30 138 3.2 6.4 0.00 1.19 1.19 80 1010.6
20260504015142 30 66 3.2 9.7 0.00 1.19 1.19 82 1010.6
20260504014638 29 349 1.6 6.4 0.00 1.19 1.19 84 1010.6
20260504014136 28 163 1.6 11.3 0.00 1.19 1.19 84 1010.6
20260504013633 28 182 0.0 1.6 0.00 1.19 1.19 86 1010.6
20260504013130 27 182 0.0 0.0 0.00 1.19 1.19 87 1010.6
20260504012627 27 182 0.0 1.6 0.00 1.19 1.19 87 1010.9
20260504012125 27 182 0.0 0.0 0.00 1.19 1.19 88 1010.9
20260504011621 27 182 0.0 0.0 0.00 1.19 1.19 88 1010.9
20260504011118 27 182 0.0 0.0 0.00 1.19 1.19 88 1011.2
20260504010614 26 182 0.0 0.0 0.00 1.19 1.19 89 1011.2
20260504010110 26 182 0.0 0.0 0.00 1.17 1.17 88 1011.2
20260504005607 26 182 0.0 1.6 1.19 1.14 1.14 88 1011.2
20260504005104 26 182 1.6 4.8 4.80 0.99 0.99 87 1011.6
20260504004602 26 67 0.0 3.2 3.61 0.84 0.84 86 1011.6
20260504004059 27 129 9.7 16.1 13.21 0.43 0.43 84 1011.6
20260504003555 28 101 9.7 20.9 1.19 0.28 0.28 81 1011.6
20260504003052 30 67 9.7 20.9 1.19 0.15 0.15 76 1011.2
20260504002548 31 42 6.4 14.5 0.00 0.15 0.15 75 1011.2
20260504002046 31 138 8.0 14.5 0.00 0.15 0.15 75 1011.2
20260504001544 31 107 3.2 6.4 0.00 0.15 0.15 75 1011.2
20260504001039 31 139 4.8 6.4 0.00 0.15 0.15 76 1011.2
20260504000537 31 118 4.8 8.0 0.00 0.15 0.15 77 1011.6
20260504000034 30 98 3.2 8.0 0.00 0.15 0.15 77 1011.6
20260503235533 30 128 1.6 6.4 0.00 0.15 0.15 79 1011.6
20260503235029 29 128 1.6 3.2 0.00 0.15 0.15 82 1011.6
20260503234527 28 128 0.0 3.2 0.00 0.15 0.15 83 1011.6
20260503234025 28 128 3.2 4.8 0.00 0.15 0.15 84 1011.6
20260503233521 28 128 3.2 4.8 0.00 0.15 0.15 85 1011.9
20260503233017 28 128 3.2 6.4 0.00 0.15 0.15 85 1011.9
20260503232514 28 128 3.2 6.4 0.00 0.15 0.15 85 1011.9
20260503232012 28 128 3.2 6.4 0.00 0.15 0.15 85 1011.9
20260503231509 28 128 3.2 6.4 0.00 0.13 0.13 83 1012.3
20260503231006 28 131 4.8 6.4 0.00 0.13 0.13 81 1012.3
20260503230502 29 117 4.8 8.0 0.00 0.13 0.13 79 1012.3
20260503230000 29 123 6.4 11.3 0.00 0.13 0.13 79 1012.3
20260503225456 30 159 3.2 8.0 0.00 0.13 0.13 78 1012.3
20260503224952 30 44 6.4 11.3 0.00 0.13 0.13 77 1012.3